User: anonymous   Login
Location: Unspecified
(0.0000°N, 0.0000°E)
Time: 23:57:23
(UTC+00:00)
Language:

Meteosat 1 - Orbit

View from above orbital plane
View from above orbital plane
View from above satellite
View from above satellite

Ground track
Ground track

The orbit data is extracted from the following two-line orbital elements,

1 10489U 77108A   24176.37444712 -.00000304  00000-0  00000-0 0  9995
2 10489   6.8938 289.4621 0009765  94.8392 157.5255  1.00272644129965
Epoch (UTC): 24 June 2024 08:59:12
Eccentricity: 0.0009765
inclination: 6.8938°
perigee height: 35745 km
apogee height: 35827 km
right ascension of ascending node: 289.4621°
argument of perigee: 94.8392°
revolutions per day: 1.00272644
mean anomaly at epoch: 157.5255°
orbit number at epoch: 12996

The dashed part of the orbit path shows where the satellite is in the earth's shadow,  

DLR